KINEIS-4A

导读

KINEIS-4A是法国于2025年3月18日发射的卫星,隶属于KINEIS星座系列,依托法国成熟航天技术支撑打造。作为近年欧洲低轨卫星网络部署的重要组成部分,该卫星主要用于增强全球物联网数据传输能力,可为海洋船舶监测、偏远地区设备传感回传等场景提供稳定的连接服务,进一步完善了欧洲全域物联网卫星的覆盖密度,助力商业航天领域的泛在连接发展。

基本信息
目录编号:
63303
目录名称:
KINEIS-4A
国际标识:
2025-056D
轨道中心:
EARTH
卫星名称:
KINEIS-4A
卫星全名:
KINEIS-4A
卫星状态:
在轨 (已飞行460 天)
发射日期:
2025-03-18 UTC
国别 :
法国 (FR)
星等 :
--
轨道信息
数据来源 国际轨道数据
星历时间: 2026-06-21T12:10:30+0800
6小时前
查看轨道信息
半长轴: 7031.982km
偏心率: 0.0000247
轨道倾角: 97.912°
近地点辐角 234.415°
升交点赤经 296.111°
平近点角 125.703°
近地点: 653.671km
远地点: 654.019km
周期: 97.808分钟
每日圈数: 14.722657
详细信息
使用方式:
暂无
2D轨道图
3D轨道图
轨道高度分析图
轨道倾角分析图
轨道综合分析图
查看轨道综合分析图